LOCATION_NAME,SAMPLE COLLECTION TIME,DOSE EQUIVALENT RATE (nSv/h),GAMMA COUNT RATE R02 (CPM),GAMMA COUNT RATE R03 (CPM),GAMMA COUNT RATE R04 (CPM),GAMMA COUNT RATE R05 (CPM),GAMMA COUNT RATE R06 (CPM),GAMMA COUNT RATE R07 (CPM),GAMMA COUNT RATE R08 (CPM),GAMMA COUNT RATE R09 (CPM),STATUS
NC: WILMINGTON,01/01/2021 00:44:00,37.00,1699.00,1085.00,361.00,164.00,92.00,99.00,52.00,26.00,APPROVED
NC: WILMINGTON,01/01/2021 01:44:00,34.00,1704.00,1081.00,350.00,163.00,91.00,96.00,54.00,25.00,APPROVED
NC: WILMINGTON,01/01/2021 02:45:00,38.00,1713.00,1091.00,356.00,162.00,92.00,100.00,53.00,26.00,APPROVED
NC: WILMINGTON,01/01/2021 03:45:00,36.00,1701.00,1082.00,353.00,160.00,91.00,101.00,52.00,25.00,APPROVED
NC: WILMINGTON,01/01/2021 04:45:00,36.00,1708.00,1073.00,354.00,162.00,90.00,99.00,53.00,26.00,APPROVED
NC: WILMINGTON,01/01/2021 05:45:00,37.00,1793.00,1168.00,375.00,177.00,94.00,108.00,57.00,27.00,APPROVED
NC: WILMINGTON,01/01/2021 06:46:00,37.00,1811.00,1169.00,379.00,179.00,97.00,109.00,58.00,27.00,APPROVED
NC: WILMINGTON,01/01/2021 07:46:00,37.00,1741.00,1107.00,368.00,170.00,93.00,104.00,55.00,26.00,APPROVED
NC: WILMINGTON,01/01/2021 08:46:00,35.00,1701.00,1077.00,360.00,163.00,92.00,98.00,52.00,26.00,APPROVED
NC: WILMINGTON,01/01/2021 09:46:00,36.00,1723.00,1106.00,365.00,168.00,92.00,104.00,54.00,25.00,APPROVED
NC: WILMINGTON,01/01/2021 10:46:00,36.00,1772.00,1144.00,377.00,176.00,97.00,110.00,56.00,27.00,APPROVED
NC: WILMINGTON,01/01/2021 11:47:00,36.00,1793.00,1162.00,378.00,178.00,97.00,111.00,57.00,26.00,APPROVED
NC: WILMINGTON,01/01/2021 12:47:00,36.00,1760.00,1126.00,367.00,171.00,95.00,107.00,54.00,26.00,APPROVED
NC: WILMINGTON,01/01/2021 13:47:00,36.00,1752.00,1128.00,369.00,169.00,93.00,105.00,54.00,27.00,APPROVED
NC: WILMINGTON,01/01/2021 14:47:00,35.00,1761.00,1126.00,368.00,174.00,96.00,103.00,56.00,28.00,APPROVED
NC: WILMINGTON,01/01/2021 15:48:00,35.00,1740.00,1112.00,366.00,167.00,93.00,105.00,56.00,26.00,APPROVED
NC: WILMINGTON,01/01/2021 16:48:00,38.00,1737.00,1115.00,363.00,171.00,94.00,107.00,56.00,27.00,APPROVED
NC: WILMINGTON,01/01/2021 17:48:00,35.00,1757.00,1123.00,366.00,170.00,96.00,103.00,56.00,27.00,APPROVED
NC: WILMINGTON,01/01/2021 18:48:00,36.00,1748.00,1124.00,372.00,174.00,96.00,107.00,56.00,26.00,APPROVED
NC: WILMINGTON,01/01/2021 19:48:00,36.00,1752.00,1131.00,375.00,173.00,95.00,109.00,57.00,27.00,APPROVED
NC: WILMINGTON,01/01/2021 20:49:00,36.00,1747.00,1129.00,370.00,172.00,94.00,108.00,55.00,26.00,APPROVED
NC: WILMINGTON,01/01/2021 21:49:00,36.00,1748.00,1121.00,369.00,174.00,95.00,106.00,56.00,26.00,APPROVED
NC: WILMINGTON,01/01/2021 22:49:00,35.00,1734.00,1119.00,364.00,173.00,94.00,105.00,54.00,28.00,APPROVED
NC: WILMINGTON,01/01/2021 23:49:00,35.00,1727.00,1105.00,367.00,172.00,92.00,105.00,53.00,26.00,APPROVED
NC: WILMINGTON,01/02/2021 00:50:00,34.00,1719.00,1104.00,358.00,170.00,94.00,103.00,55.00,27.00,APPROVED
NC: WILMINGTON,01/02/2021 01:50:00,35.00,1687.00,1088.00,361.00,167.00,92.00,102.00,53.00,27.00,APPROVED
NC: WILMINGTON,01/02/2021 02:50:00,36.00,1690.00,1071.00,351.00,164.00,89.00,100.00,53.00,26.00,APPROVED
NC: WILMINGTON,01/02/2021 03:50:00,36.00,1674.00,1065.00,351.00,161.00,89.00,97.00,53.00,25.00,APPROVED
NC: WILMINGTON,01/02/2021 04:50:00,34.00,1671.00,1057.00,346.00,160.00,90.00,95.00,52.00,26.00,APPROVED
NC: WILMINGTON,01/02/2021 05:51:00,35.00,1678.00,1053.00,348.00,159.00,90.00,97.00,51.00,25.00,APPROVED
NC: WILMINGTON,01/02/2021 06:51:00,33.00,1686.00,1057.00,348.00,160.00,89.00,93.00,55.00,26.00,APPROVED
NC: WILMINGTON,01/02/2021 07:51:00,34.00,1697.00,1072.00,350.00,166.00,92.00,99.00,51.00,25.00,APPROVED
NC: WILMINGTON,01/02/2021 08:51:00,35.00,1685.00,1068.00,348.00,159.00,92.00,97.00,52.00,25.00,APPROVED
NC: WILMINGTON,01/02/2021 09:51:00,34.00,1673.00,1061.00,352.00,157.00,89.00,95.00,52.00,25.00,APPROVED
NC: WILMINGTON,01/02/2021 10:52:00,36.00,1685.00,1062.00,348.00,158.00,88.00,96.00,53.00,26.00,APPROVED
NC: WILMINGTON,01/02/2021 11:52:00,34.00,1689.00,1068.00,355.00,158.00,89.00,96.00,53.00,25.00,APPROVED
NC: WILMINGTON,01/02/2021 12:52:00,37.00,1686.00,1066.00,352.00,161.00,90.00,99.00,52.00,25.00,APPROVED
NC: WILMINGTON,01/02/2021 13:52:00,35.00,1686.00,1067.00,345.00,161.00,91.00,96.00,52.00,24.00,APPROVED
NC: WILMINGTON,01/02/2021 14:53:00,34.00,1690.00,1057.00,348.00,160.00,89.00,96.00,52.00,24.00,APPROVED
NC: WILMINGTON,01/02/2021 15:53:00,33.00,1676.00,1064.00,345.00,164.00,91.00,95.00,53.00,25.00,APPROVED
NC: WILMINGTON,01/02/2021 16:53:00,35.00,1690.00,1067.00,351.00,160.00,91.00,97.00,53.00,25.00,APPROVED
NC: WILMINGTON,01/02/2021 17:53:00,35.00,1699.00,1068.00,352.00,165.00,91.00,98.00,53.00,27.00,APPROVED
NC: WILMINGTON,01/02/2021 18:53:00,34.00,1689.00,1067.00,351.00,160.00,90.00,96.00,53.00,25.00,APPROVED
NC: WILMINGTON,01/02/2021 19:54:00,34.00,1722.00,1105.00,356.00,169.00,94.00,98.00,54.00,25.00,APPROVED
NC: WILMINGTON,01/02/2021 20:54:00,37.00,1759.00,1125.00,367.00,174.00,95.00,104.00,55.00,28.00,APPROVED
NC: WILMINGTON,01/02/2021 21:54:00,37.00,1809.00,1175.00,384.00,186.00,99.00,111.00,59.00,27.00,APPROVED
NC: WILMINGTON,01/02/2021 22:54:00,37.00,1799.00,1179.00,381.00,183.00,102.00,113.00,61.00,27.00,APPROVED
NC: WILMINGTON,01/02/2021 23:54:00,37.00,1765.00,1143.00,377.00,177.00,97.00,107.00,57.00,27.00,APPROVED
NC: WILMINGTON,01/03/2021 00:55:00,35.00,1754.00,1129.00,373.00,173.00,95.00,106.00,56.00,26.00,APPROVED
NC: WILMINGTON,01/03/2021 01:55:00,36.00,1748.00,1134.00,367.00,173.00,93.00,107.00,57.00,28.00,APPROVED
NC: WILMINGTON,01/03/2021 02:55:00,37.00,1759.00,1129.00,371.00,176.00,96.00,107.00,57.00,27.00,APPROVED
NC: WILMINGTON,01/03/2021 03:55:00,35.00,1760.00,1134.00,369.00,178.00,95.00,109.00,57.00,27.00,APPROVED
NC: WILMINGTON,01/03/2021 04:56:00,34.00,1754.00,1138.00,373.00,177.00,96.00,109.00,58.00,28.00,APPROVED
NC: WILMINGTON,01/03/2021 05:56:00,34.00,1723.00,1109.00,363.00,173.00,90.00,107.00,54.00,27.00,APPROVED
NC: WILMINGTON,01/03/2021 06:56:00,34.00,1721.00,1095.00,366.00,168.00,94.00,102.00,54.00,25.00,APPROVED
NC: WILMINGTON,01/03/2021 07:56:00,34.00,1700.00,1089.00,353.00,166.00,93.00,103.00,54.00,25.00,APPROVED
NC: WILMINGTON,01/03/2021 08:56:00,34.00,1700.00,1081.00,359.00,164.00,92.00,101.00,54.00,26.00,APPROVED
NC: WILMINGTON,01/03/2021 09:57:00,36.00,1715.00,1083.00,356.00,164.00,91.00,99.00,53.00,26.00,APPROVED
NC: WILMINGTON,01/03/2021 10:57:00,38.00,1714.00,1098.00,358.00,166.00,92.00,101.00,52.00,26.00,APPROVED
NC: WILMINGTON,01/03/2021 11:57:00,35.00,1700.00,1077.00,358.00,166.00,88.00,98.00,54.00,25.00,APPROVED
NC: WILMINGTON,01/03/2021 12:57:00,38.00,1787.00,1155.00,376.00,172.00,94.00,107.00,58.00,26.00,APPROVED
NC: WILMINGTON,01/03/2021 13:58:00,40.00,1824.00,1188.00,389.00,184.00,99.00,113.00,58.00,28.00,APPROVED
NC: WILMINGTON,01/03/2021 14:58:00,39.00,1771.00,1141.00,376.00,173.00,97.00,110.00,56.00,27.00,APPROVED
NC: WILMINGTON,01/03/2021 15:58:00,38.00,1750.00,1126.00,370.00,171.00,96.00,105.00,56.00,26.00,APPROVED
NC: WILMINGTON,01/03/2021 16:58:00,37.00,1749.00,1115.00,363.00,171.00,94.00,104.00,54.00,27.00,APPROVED
NC: WILMINGTON,01/03/2021 17:58:00,37.00,1758.00,1129.00,366.00,170.00,96.00,102.00,57.00,26.00,APPROVED
NC: WILMINGTON,01/03/2021 18:59:00,37.00,1761.00,1128.00,363.00,173.00,94.00,104.00,55.00,27.00,APPROVED
NC: WILMINGTON,01/03/2021 19:59:00,38.00,1754.00,1128.00,362.00,177.00,97.00,104.00,58.00,27.00,APPROVED
NC: WILMINGTON,01/03/2021 20:59:00,37.00,1739.00,1118.00,366.00,174.00,95.00,104.00,56.00,26.00,APPROVED
NC: WILMINGTON,01/03/2021 21:59:00,39.00,1734.00,1114.00,363.00,171.00,90.00,103.00,53.00,26.00,APPROVED
NC: WILMINGTON,01/03/2021 22:59:00,37.00,1732.00,1108.00,361.00,168.00,93.00,103.00,56.00,28.00,APPROVED
NC: WILMINGTON,01/04/2021 00:00:00,37.00,1733.00,1095.00,359.00,166.00,95.00,99.00,53.00,27.00,APPROVED
NC: WILMINGTON,01/04/2021 01:00:00,37.00,1731.00,1099.00,362.00,169.00,93.00,102.00,53.00,26.00,APPROVED
NC: WILMINGTON,01/04/2021 02:00:00,37.00,1742.00,1111.00,365.00,168.00,95.00,102.00,54.00,26.00,APPROVED
NC: WILMINGTON,01/04/2021 03:00:00,38.00,1773.00,1134.00,368.00,171.00,92.00,107.00,54.00,26.00,APPROVED
NC: WILMINGTON,01/04/2021 04:01:00,37.00,1784.00,1152.00,374.00,175.00,99.00,109.00,56.00,26.00,APPROVED
NC: WILMINGTON,01/04/2021 05:01:00,38.00,1799.00,1155.00,380.00,178.00,97.00,111.00,57.00,26.00,APPROVED
NC: WILMINGTON,01/04/2021 06:01:00,37.00,1800.00,1166.00,380.00,179.00,98.00,112.00,57.00,26.00,APPROVED
NC: WILMINGTON,01/04/2021 07:01:00,37.00,1817.00,1168.00,384.00,185.00,98.00,111.00,58.00,27.00,APPROVED
NC: WILMINGTON,01/04/2021 08:01:00,38.00,1801.00,1175.00,378.00,180.00,98.00,113.00,59.00,27.00,APPROVED
NC: WILMINGTON,01/04/2021 09:02:00,38.00,1815.00,1187.00,385.00,185.00,98.00,116.00,59.00,27.00,APPROVED
NC: WILMINGTON,01/04/2021 10:02:00,37.00,1825.00,1183.00,386.00,185.00,100.00,114.00,59.00,28.00,APPROVED
NC: WILMINGTON,01/04/2021 11:02:00,38.00,1819.00,1185.00,385.00,183.00,99.00,116.00,59.00,28.00,APPROVED
NC: WILMINGTON,01/04/2021 12:02:00,39.00,1802.00,1184.00,386.00,185.00,102.00,115.00,58.00,27.00,APPROVED
NC: WILMINGTON,01/04/2021 13:03:00,38.00,1795.00,1175.00,384.00,183.00,98.00,111.00,59.00,27.00,APPROVED
NC: WILMINGTON,01/04/2021 14:03:00,38.00,1783.00,1163.00,377.00,179.00,97.00,110.00,58.00,27.00,APPROVED
NC: WILMINGTON,01/04/2021 15:03:00,38.00,1790.00,1170.00,383.00,176.00,98.00,110.00,58.00,27.00,APPROVED
NC: WILMINGTON,01/04/2021 16:03:00,37.00,1776.00,1170.00,380.00,179.00,96.00,113.00,59.00,28.00,APPROVED
NC: WILMINGTON,01/04/2021 17:03:00,38.00,1784.00,1168.00,380.00,180.00,97.00,114.00,58.00,27.00,APPROVED
NC: WILMINGTON,01/04/2021 18:04:00,38.00,1789.00,1175.00,380.00,180.00,98.00,115.00,57.00,26.00,APPROVED
NC: WILMINGTON,01/04/2021 19:04:00,39.00,1788.00,1168.00,383.00,180.00,98.00,112.00,56.00,28.00,APPROVED
NC: WILMINGTON,01/04/2021 20:04:00,39.00,1795.00,1161.00,378.00,182.00,99.00,111.00,59.00,29.00,APPROVED
NC: WILMINGTON,01/04/2021 21:04:00,39.00,1774.00,1160.00,376.00,182.00,97.00,110.00,56.00,27.00,APPROVED
NC: WILMINGTON,01/04/2021 22:04:00,39.00,1772.00,1159.00,379.00,181.00,97.00,112.00,57.00,27.00,APPROVED
NC: WILMINGTON,01/04/2021 23:05:00,37.00,1800.00,1163.00,381.00,177.00,98.00,109.00,57.00,27.00,APPROVED
NC: WILMINGTON,01/05/2021 00:05:00,37.00,1798.00,1154.00,377.00,173.00,96.00,110.00,57.00,27.00,APPROVED
NC: WILMINGTON,01/05/2021 01:05:00,37.00,1794.00,1150.00,378.00,177.00,95.00,109.00,55.00,26.00,APPROVED
NC: WILMINGTON,01/05/2021 02:05:00,38.00,1796.00,1159.00,371.00,177.00,98.00,109.00,57.00,27.00,APPROVED
NC: WILMINGTON,01/05/2021 03:06:00,38.00,1796.00,1154.00,374.00,174.00,96.00,109.00,56.00,27.00,APPROVED
NC: WILMINGTON,01/05/2021 04:06:00,36.00,1794.00,1147.00,377.00,178.00,97.00,106.00,56.00,27.00,APPROVED
NC: WILMINGTON,01/05/2021 05:06:00,37.00,1799.00,1155.00,373.00,177.00,98.00,111.00,58.00,27.00,APPROVED
NC: WILMINGTON,01/05/2021 06:06:00,38.00,1800.00,1170.00,377.00,176.00,97.00,111.00,56.00,27.00,APPROVED
NC: WILMINGTON,01/05/2021 07:06:00,39.00,1801.00,1164.00,379.00,181.00,99.00,111.00,56.00,27.00,APPROVED
NC: WILMINGTON,01/05/2021 08:07:00,39.00,1808.00,1177.00,381.00,183.00,100.00,112.00,59.00,27.00,APPROVED
NC: WILMINGTON,01/05/2021 09:07:00,39.00,1821.00,1185.00,386.00,185.00,101.00,114.00,59.00,27.00,APPROVED
NC: WILMINGTON,01/05/2021 10:07:00,38.00,1818.00,1191.00,391.00,185.00,100.00,115.00,59.00,28.00,APPROVED
NC: WILMINGTON,01/05/2021 11:07:00,37.00,1820.00,1185.00,384.00,186.00,102.00,112.00,59.00,28.00,APPROVED
NC: WILMINGTON,01/05/2021 12:07:00,39.00,1810.00,1192.00,383.00,184.00,99.00,114.00,59.00,28.00,APPROVED
NC: WILMINGTON,01/05/2021 13:08:00,38.00,1808.00,1182.00,391.00,184.00,103.00,114.00,58.00,27.00,APPROVED
NC: WILMINGTON,01/05/2021 14:08:00,37.00,1779.00,1163.00,379.00,184.00,98.00,109.00,59.00,29.00,APPROVED
NC: WILMINGTON,01/05/2021 15:08:00,38.00,1779.00,1158.00,380.00,176.00,97.00,109.00,58.00,27.00,APPROVED
NC: WILMINGTON,01/05/2021 16:08:00,38.00,1777.00,1149.00,376.00,175.00,96.00,108.00,56.00,26.00,APPROVED
NC: WILMINGTON,01/05/2021 17:09:00,42.00,1905.00,1266.00,411.00,195.00,104.00,122.00,63.00,28.00,APPROVED
NC: WILMINGTON,01/05/2021 18:09:00,48.00,1983.00,1343.00,432.00,212.00,113.00,134.00,68.00,31.00,APPROVED
NC: WILMINGTON,01/05/2021 19:09:00,51.00,2005.00,1359.00,439.00,211.00,113.00,134.00,69.00,30.00,APPROVED
NC: WILMINGTON,01/05/2021 20:09:00,53.00,2021.00,1368.00,445.00,220.00,115.00,137.00,71.00,31.00,APPROVED
NC: WILMINGTON,01/05/2021 21:09:00,41.00,1836.00,1188.00,391.00,187.00,102.00,115.00,60.00,29.00,APPROVED
NC: WILMINGTON,01/05/2021 22:10:00,38.00,1768.00,1138.00,371.00,172.00,95.00,107.00,56.00,27.00,APPROVED
NC: WILMINGTON,01/05/2021 23:10:00,38.00,1774.00,1133.00,374.00,173.00,95.00,108.00,55.00,27.00,APPROVED
NC: WILMINGTON,01/06/2021 00:10:00,38.00,1776.00,1144.00,374.00,175.00,96.00,108.00,56.00,27.00,APPROVED
NC: WILMINGTON,01/06/2021 01:10:00,37.00,1788.00,1149.00,370.00,178.00,96.00,110.00,57.00,27.00,APPROVED
NC: WILMINGTON,01/06/2021 02:10:00,38.00,1798.00,1160.00,374.00,176.00,95.00,111.00,59.00,26.00,APPROVED
NC: WILMINGTON,01/06/2021 03:11:00,37.00,1799.00,1158.00,382.00,178.00,97.00,108.00,57.00,27.00,APPROVED
NC: WILMINGTON,01/06/2021 04:11:00,39.00,1792.00,1162.00,381.00,180.00,94.00,108.00,57.00,26.00,APPROVED
NC: WILMINGTON,01/06/2021 05:11:00,39.00,1787.00,1149.00,370.00,176.00,98.00,110.00,57.00,27.00,APPROVED
NC: WILMINGTON,01/06/2021 06:11:00,39.00,1781.00,1147.00,370.00,172.00,97.00,109.00,55.00,27.00,APPROVED
NC: WILMINGTON,01/06/2021 07:12:00,36.00,1778.00,1154.00,375.00,178.00,96.00,107.00,56.00,26.00,APPROVED
NC: WILMINGTON,01/06/2021 08:12:00,37.00,1787.00,1137.00,371.00,173.00,96.00,108.00,56.00,28.00,APPROVED
NC: WILMINGTON,01/06/2021 09:12:00,39.00,1792.00,1155.00,379.00,180.00,95.00,108.00,55.00,27.00,APPROVED
NC: WILMINGTON,01/06/2021 10:12:00,38.00,1804.00,1161.00,379.00,177.00,97.00,111.00,57.00,27.00,APPROVED
NC: WILMINGTON,01/06/2021 11:12:00,38.00,1787.00,1167.00,375.00,182.00,98.00,109.00,58.00,28.00,APPROVED
NC: WILMINGTON,01/06/2021 12:13:00,38.00,1795.00,1167.00,379.00,181.00,98.00,111.00,57.00,27.00,APPROVED
NC: WILMINGTON,01/06/2021 13:13:00,37.00,1791.00,1174.00,377.00,185.00,98.00,112.00,58.00,28.00,APPROVED
NC: WILMINGTON,01/06/2021 14:13:00,40.00,1772.00,1153.00,375.00,180.00,98.00,109.00,57.00,26.00,APPROVED
NC: WILMINGTON,01/06/2021 15:37:00,38.00,1732.00,1094.00,358.00,165.00,93.00,101.00,52.00,27.00,APPROVED
NC: WILMINGTON,01/06/2021 16:37:00,35.00,1753.00,1124.00,361.00,169.00,94.00,107.00,54.00,27.00,APPROVED
NC: WILMINGTON,01/06/2021 17:37:00,38.00,1775.00,1145.00,372.00,177.00,96.00,108.00,57.00,27.00,APPROVED
NC: WILMINGTON,01/06/2021 18:37:00,38.00,1771.00,1148.00,379.00,175.00,97.00,110.00,54.00,27.00,APPROVED
NC: WILMINGTON,01/06/2021 19:38:00,38.00,1768.00,1146.00,376.00,176.00,95.00,108.00,55.00,27.00,APPROVED
NC: WILMINGTON,01/06/2021 20:38:00,38.00,1768.00,1144.00,375.00,174.00,95.00,108.00,54.00,27.00,APPROVED
NC: WILMINGTON,01/06/2021 21:38:00,37.00,1771.00,1149.00,371.00,178.00,96.00,109.00,56.00,26.00,APPROVED
NC: WILMINGTON,01/06/2021 22:38:00,40.00,1791.00,1156.00,377.00,183.00,98.00,110.00,57.00,27.00,APPROVED
NC: WILMINGTON,01/06/2021 23:38:00,41.00,1811.00,1160.00,377.00,180.00,95.00,111.00,58.00,27.00,APPROVED
NC: WILMINGTON,01/07/2021 00:39:00,41.00,1822.00,1170.00,380.00,182.00,98.00,112.00,59.00,28.00,APPROVED
NC: WILMINGTON,01/07/2021 01:39:00,37.00,1817.00,1170.00,383.00,182.00,96.00,114.00,59.00,27.00,APPROVED
NC: WILMINGTON,01/07/2021 02:39:00,38.00,1824.00,1183.00,382.00,182.00,98.00,110.00,57.00,27.00,APPROVED
NC: WILMINGTON,01/07/2021 03:39:00,38.00,1811.00,1163.00,381.00,178.00,97.00,112.00,58.00,26.00,APPROVED
NC: WILMINGTON,01/07/2021 04:39:00,38.00,1813.00,1165.00,376.00,181.00,98.00,109.00,59.00,28.00,APPROVED
NC: WILMINGTON,01/07/2021 05:40:00,42.00,1824.00,1185.00,382.00,183.00,96.00,114.00,57.00,27.00,APPROVED
NC: WILMINGTON,01/07/2021 06:40:00,38.00,1819.00,1188.00,384.00,184.00,99.00,115.00,59.00,27.00,APPROVED
NC: WILMINGTON,01/07/2021 07:40:00,40.00,1828.00,1188.00,387.00,183.00,101.00,114.00,58.00,27.00,APPROVED
NC: WILMINGTON,01/07/2021 08:40:00,41.00,1831.00,1192.00,388.00,186.00,100.00,114.00,61.00,27.00,APPROVED
NC: WILMINGTON,01/07/2021 09:41:00,37.00,1834.00,1205.00,390.00,188.00,101.00,116.00,61.00,27.00,APPROVED
NC: WILMINGTON,01/07/2021 10:41:00,40.00,1846.00,1213.00,390.00,184.00,102.00,116.00,60.00,28.00,APPROVED
NC: WILMINGTON,01/07/2021 11:41:00,39.00,1849.00,1219.00,398.00,191.00,103.00,119.00,60.00,28.00,APPROVED
NC: WILMINGTON,01/07/2021 12:41:00,42.00,1843.00,1214.00,390.00,191.00,101.00,118.00,63.00,30.00,APPROVED
NC: WILMINGTON,01/07/2021 13:41:00,39.00,1843.00,1200.00,394.00,190.00,102.00,117.00,61.00,28.00,APPROVED
NC: WILMINGTON,01/07/2021 14:42:00,40.00,1807.00,1191.00,390.00,187.00,98.00,114.00,59.00,28.00,APPROVED
NC: WILMINGTON,01/07/2021 15:42:00,38.00,1771.00,1167.00,379.00,178.00,96.00,112.00,58.00,29.00,APPROVED
NC: WILMINGTON,01/07/2021 16:42:00,38.00,1750.00,1128.00,374.00,172.00,97.00,109.00,57.00,28.00,APPROVED
NC: WILMINGTON,01/07/2021 17:42:00,38.00,1753.00,1137.00,367.00,172.00,95.00,108.00,56.00,26.00,APPROVED
NC: WILMINGTON,01/07/2021 18:43:00,35.00,1758.00,1134.00,371.00,171.00,94.00,107.00,56.00,26.00,APPROVED
NC: WILMINGTON,01/07/2021 19:43:00,37.00,1757.00,1137.00,371.00,174.00,94.00,108.00,57.00,26.00,APPROVED
NC: WILMINGTON,01/07/2021 20:43:00,36.00,1764.00,1139.00,368.00,175.00,95.00,108.00,57.00,27.00,APPROVED
NC: WILMINGTON,01/07/2021 21:43:00,39.00,1773.00,1134.00,369.00,172.00,95.00,109.00,58.00,27.00,APPROVED
NC: WILMINGTON,01/07/2021 22:43:00,38.00,1780.00,1148.00,373.00,176.00,97.00,109.00,55.00,28.00,APPROVED
NC: WILMINGTON,01/07/2021 23:44:00,39.00,1773.00,1145.00,376.00,177.00,98.00,108.00,56.00,27.00,APPROVED
NC: WILMINGTON,01/08/2021 00:44:00,39.00,1774.00,1135.00,371.00,176.00,95.00,107.00,57.00,26.00,APPROVED
NC: WILMINGTON,01/08/2021 01:44:00,37.00,1760.00,1131.00,371.00,168.00,95.00,106.00,55.00,27.00,APPROVED
NC: WILMINGTON,01/08/2021 02:44:00,37.00,1769.00,1127.00,365.00,175.00,95.00,105.00,56.00,26.00,APPROVED
NC: WILMINGTON,01/08/2021 04:45:00,38.00,1756.00,1116.00,368.00,170.00,97.00,106.00,54.00,28.00,APPROVED
NC: WILMINGTON,01/08/2021 05:45:00,39.00,1821.00,1177.00,381.00,178.00,99.00,110.00,59.00,27.00,APPROVED
NC: WILMINGTON,01/08/2021 06:45:00,41.00,1891.00,1237.00,401.00,196.00,103.00,122.00,61.00,28.00,APPROVED
NC: WILMINGTON,01/08/2021 07:45:00,39.00,1825.00,1189.00,386.00,186.00,98.00,115.00,61.00,28.00,APPROVED
NC: WILMINGTON,01/08/2021 08:46:00,42.00,1939.00,1282.00,417.00,201.00,106.00,122.00,65.00,29.00,APPROVED
NC: WILMINGTON,01/08/2021 09:46:00,45.00,1991.00,1332.00,427.00,208.00,110.00,132.00,67.00,30.00,APPROVED
NC: WILMINGTON,01/08/2021 10:46:00,55.00,2205.00,1515.00,473.00,236.00,123.00,149.00,75.00,31.00,APPROVED
NC: WILMINGTON,01/08/2021 11:46:00,59.00,2216.00,1534.00,484.00,244.00,125.00,155.00,79.00,33.00,APPROVED
NC: WILMINGTON,01/08/2021 12:46:00,49.00,1959.00,1310.00,423.00,210.00,108.00,132.00,69.00,30.00,APPROVED
NC: WILMINGTON,01/08/2021 13:47:00,40.00,1781.00,1159.00,381.00,181.00,97.00,111.00,58.00,28.00,APPROVED
NC: WILMINGTON,01/08/2021 14:47:00,39.00,1713.00,1101.00,361.00,168.00,91.00,101.00,54.00,27.00,APPROVED
NC: WILMINGTON,01/08/2021 15:47:00,37.00,1699.00,1086.00,358.00,166.00,93.00,102.00,52.00,26.00,APPROVED
NC: WILMINGTON,01/08/2021 17:47:00,36.00,1700.00,1073.00,354.00,161.00,89.00,98.00,51.00,26.00,APPROVED
NC: WILMINGTON,01/08/2021 18:48:00,37.00,1686.00,1081.00,355.00,161.00,89.00,102.00,53.00,26.00,APPROVED
NC: WILMINGTON,01/08/2021 19:48:00,37.00,1684.00,1081.00,351.00,160.00,92.00,98.00,51.00,25.00,APPROVED
NC: WILMINGTON,01/08/2021 20:48:00,37.00,1695.00,1067.00,351.00,161.00,91.00,98.00,50.00,27.00,APPROVED
NC: WILMINGTON,01/08/2021 21:48:00,37.00,1718.00,1092.00,359.00,165.00,91.00,101.00,53.00,27.00,APPROVED
NC: WILMINGTON,01/08/2021 22:49:00,37.00,1710.00,1091.00,363.00,167.00,91.00,103.00,54.00,27.00,APPROVED
NC: WILMINGTON,01/08/2021 23:49:00,37.00,1733.00,1103.00,358.00,168.00,93.00,103.00,53.00,27.00,APPROVED
NC: WILMINGTON,01/09/2021 00:49:00,41.00,1847.00,1207.00,392.00,187.00,101.00,114.00,61.00,29.00,APPROVED
NC: WILMINGTON,01/09/2021 01:49:00,42.00,1844.00,1203.00,395.00,187.00,102.00,115.00,60.00,27.00,APPROVED
NC: WILMINGTON,01/09/2021 02:49:00,41.00,1854.00,1223.00,396.00,192.00,103.00,117.00,62.00,27.00,APPROVED
NC: WILMINGTON,01/09/2021 03:50:00,42.00,1873.00,1227.00,398.00,190.00,103.00,117.00,62.00,28.00,APPROVED
NC: WILMINGTON,01/09/2021 04:50:00,39.00,1788.00,1142.00,375.00,179.00,96.00,109.00,59.00,26.00,APPROVED
NC: WILMINGTON,01/09/2021 05:50:00,38.00,1757.00,1123.00,370.00,171.00,95.00,105.00,56.00,27.00,APPROVED
NC: WILMINGTON,01/09/2021 06:50:00,40.00,1756.00,1132.00,370.00,169.00,93.00,106.00,57.00,26.00,APPROVED
NC: WILMINGTON,01/09/2021 07:50:00,39.00,1756.00,1129.00,365.00,173.00,94.00,106.00,55.00,27.00,APPROVED
NC: WILMINGTON,01/09/2021 08:51:00,40.00,1761.00,1117.00,367.00,172.00,94.00,107.00,55.00,28.00,APPROVED
NC: WILMINGTON,01/09/2021 09:51:00,37.00,1742.00,1106.00,365.00,171.00,92.00,105.00,54.00,26.00,APPROVED
NC: WILMINGTON,01/09/2021 10:51:00,40.00,1749.00,1111.00,367.00,172.00,94.00,103.00,54.00,26.00,APPROVED
NC: WILMINGTON,01/09/2021 11:51:00,37.00,1768.00,1125.00,369.00,171.00,94.00,105.00,56.00,27.00,APPROVED
NC: WILMINGTON,01/09/2021 12:52:00,39.00,1762.00,1144.00,373.00,178.00,93.00,110.00,57.00,28.00,APPROVED
NC: WILMINGTON,01/09/2021 13:52:00,39.00,1765.00,1141.00,372.00,176.00,95.00,108.00,57.00,27.00,APPROVED
NC: WILMINGTON,01/09/2021 14:52:00,39.00,1771.00,1133.00,373.00,176.00,96.00,107.00,55.00,26.00,APPROVED
NC: WILMINGTON,01/09/2021 15:52:00,39.00,1779.00,1140.00,376.00,174.00,96.00,107.00,57.00,27.00,APPROVED
NC: WILMINGTON,01/09/2021 16:52:00,38.00,1800.00,1159.00,377.00,177.00,99.00,108.00,56.00,27.00,APPROVED
NC: WILMINGTON,01/09/2021 17:53:00,40.00,1788.00,1166.00,379.00,176.00,96.00,111.00,58.00,27.00,APPROVED
NC: WILMINGTON,01/09/2021 18:53:00,39.00,1788.00,1159.00,376.00,176.00,96.00,112.00,56.00,27.00,APPROVED
NC: WILMINGTON,01/09/2021 19:53:00,39.00,1776.00,1148.00,373.00,176.00,96.00,109.00,59.00,27.00,APPROVED
NC: WILMINGTON,01/09/2021 20:53:00,38.00,1775.00,1143.00,379.00,174.00,97.00,109.00,57.00,25.00,APPROVED
NC: WILMINGTON,01/09/2021 21:54:00,38.00,1776.00,1143.00,373.00,173.00,94.00,108.00,56.00,27.00,APPROVED
NC: WILMINGTON,01/09/2021 22:54:00,39.00,1766.00,1133.00,371.00,174.00,94.00,108.00,55.00,27.00,APPROVED
NC: WILMINGTON,01/09/2021 23:54:00,37.00,1766.00,1131.00,369.00,172.00,93.00,107.00,55.00,26.00,APPROVED
NC: WILMINGTON,01/10/2021 00:54:00,41.00,1769.00,1119.00,367.00,168.00,95.00,106.00,54.00,26.00,APPROVED
NC: WILMINGTON,01/10/2021 01:54:00,38.00,1751.00,1120.00,365.00,171.00,94.00,104.00,55.00,27.00,APPROVED
NC: WILMINGTON,01/10/2021 02:55:00,38.00,1766.00,1127.00,363.00,174.00,95.00,103.00,54.00,27.00,APPROVED
NC: WILMINGTON,01/10/2021 03:55:00,38.00,1759.00,1129.00,363.00,175.00,92.00,104.00,56.00,27.00,APPROVED
NC: WILMINGTON,01/10/2021 04:55:00,37.00,1760.00,1117.00,364.00,173.00,95.00,104.00,57.00,27.00,APPROVED
NC: WILMINGTON,01/10/2021 05:55:00,38.00,1751.00,1107.00,366.00,169.00,92.00,105.00,54.00,26.00,APPROVED
NC: WILMINGTON,01/10/2021 06:55:00,37.00,1752.00,1118.00,368.00,170.00,93.00,104.00,54.00,26.00,APPROVED
NC: WILMINGTON,01/10/2021 07:56:00,37.00,1754.00,1113.00,363.00,168.00,93.00,105.00,53.00,27.00,APPROVED
NC: WILMINGTON,01/10/2021 08:56:00,38.00,1755.00,1125.00,367.00,171.00,93.00,104.00,55.00,26.00,APPROVED
NC: WILMINGTON,01/10/2021 09:56:00,39.00,1763.00,1129.00,366.00,172.00,96.00,104.00,56.00,27.00,APPROVED
NC: WILMINGTON,01/10/2021 10:56:00,38.00,1758.00,1130.00,373.00,172.00,94.00,107.00,56.00,28.00,APPROVED
NC: WILMINGTON,01/10/2021 11:57:00,37.00,1762.00,1130.00,369.00,175.00,95.00,108.00,58.00,26.00,APPROVED